カタログに戻る

FTV 3502

運用中軍事PO
NORAD 369·PAYLOAD·🇺🇸 United States

打ち上げ Aug 23, 1962 から Vandenberg Space Force Base

Loading…

次のパス (今後24時間)

TLE

最新Source: Space-Track

元期: Sep 9, 2026, 05:28 UTC

1 00369U 62039A   26252.22838879  .00000926  00000-0  91789-4 0  9997
2 00369  98.4556 342.7633 0077834 213.2216 146.4102 14.92481444428149

AllMySatでFTV 3502をリアルタイム追跡

Download on the App Store